Tracking 19638 objects as of 18-Apr-2019
HD Live streaming from Space Station
objects crossing your sky now

CZ-4 DEB

Track CZ-4 DEB now!
10-day predictions


NORAD ID: 26184
Int'l Code: 1999-057BW
Perigee: 704.3 km
Apogee: 862.2 km
Inclination: 98.7 °
Period: 100.4 minutes
Semi major axis: 7154 km
RCS: 0.0575 m2 (small)
Launch date: October 14, 1999
Source: People's Republic of China (PRC)
Launch site: Taiyaun Space Center, China (TSC)

Note: This is SATELLITE DEBRIS
aabbcc
Your satellite tracking list
Your tracking list is empty




NASA's NSSDC Master Catalog

Two Line Element Set (TLE):
1 26184U 99057BW  19107.83901431 +.00000083 +00000-0 +42764-4 0  9996
2 26184 098.7269 069.5578 0110347 096.6625 264.7133 14.34694655998070
Source of the keplerian elements: AFSPC